When you browse on this site, cookies collect data to enhance your experience and personalize the content and advertising you see.
Visit our Privacy Policy to learn more. By continuing to use the site, you agree to this use of cookies and data.
  • In Hungary
  • List of Countries
  • For 7 days
  • Water Temperature
  • Satellite Maps
  • Weather Map
  • News
  • Weather Widgets
  • user-avatar
    Login

    Hourly Weather Chodel

    Today, 21 May, Tuesday

    Time Temperature Precipitation Wind Pressure Humidity
    00:00 +14°C° 0 mm 2 mps 739 mmHg 92%
    01:00 +14°C° 0 mm 2 mps 739 mmHg 94%
    02:00 +14°C° 0 mm 2 mps 739 mmHg 93%
    03:00 +14°C° 0 mm 2 mps 739 mmHg 93%
    04:00 +15°C° 0 mm 2 mps 739 mmHg 93%
    05:00 +16°C° 0 mm 2 mps 738 mmHg 90%
    06:00 +17°C° 0 mm 2 mps 738 mmHg 87%
    07:00 +18°C° 0 mm 2 mps 738 mmHg 83%
    08:00 +18°C° 0.4 mm 3 mps 738 mmHg 82%
    09:00 +19°C° 0.4 mm 5 mps 738 mmHg 82%
    10:00 +19°C° 0.4 mm 6 mps 737 mmHg 81%
    11:00 +19°C° 0.6 mm 6 mps 737 mmHg 79%
    12:00 +20°C° 0.6 mm 7 mps 737 mmHg 77%
    13:00 +20°C° 0.6 mm 7 mps 737 mmHg 75%
    14:00 +18°C° 0.2 mm 7 mps 737 mmHg 78%
    15:00 +17°C° 0.2 mm 7 mps 737 mmHg 80%
    16:00 +16°C° 0.2 mm 7 mps 737 mmHg 83%
    17:00 +15°C° 0.1 mm 7 mps 737 mmHg 85%
    18:00 +14°C° 0.1 mm 7 mps 737 mmHg 87%
    19:00 +12°C° 0.1 mm 7 mps 736 mmHg 88%
    20:00 +12°C° 0.2 mm 7 mps 737 mmHg 89%
    21:00 +14°C° 0.2 mm 7 mps 737 mmHg 90%
    22:00 +14°C° 0.2 mm 7 mps 737 mmHg 91%
    23:00 +12°C° 0.1 mm 7 mps 737 mmHg 91%

    Tomorrow, 22 May, Wednesday

    Time Temperature Precipitation Wind Pressure Humidity
    00:00 +13°C° 0.1 mm 6 mps 737 mmHg 92%
    01:00 +13°C° 0.1 mm 6 mps 737 mmHg 92%
    02:00 +13°C° 0.1 mm 6 mps 737 mmHg 92%
    03:00 +13°C° 0.1 mm 5 mps 737 mmHg 93%
    04:00 +13°C° 0.1 mm 5 mps 737 mmHg 93%
    05:00 +13°C° 0.1 mm 5 mps 737 mmHg 92%
    06:00 +13°C° 0.1 mm 5 mps 737 mmHg 91%
    07:00 +14°C° 0.1 mm 5 mps 737 mmHg 91%
    08:00 +14°C° 0.1 mm 5 mps 738 mmHg 88%
    09:00 +15°C° 0.1 mm 5 mps 738 mmHg 86%
    10:00 +16°C° 0.1 mm 5 mps 738 mmHg 83%
    11:00 +16°C° 0.1 mm 5 mps 738 mmHg 81%
    12:00 +17°C° 0.1 mm 5 mps 738 mmHg 78%
    13:00 +19°C° 0.1 mm 5 mps 738 mmHg 76%
    14:00 +19°C° 0.3 mm 5 mps 738 mmHg 75%
    15:00 +19°C° 0.3 mm 5 mps 738 mmHg 75%
    16:00 +20°C° 0.3 mm 5 mps 738 mmHg 74%
    17:00 +18°C° 0.3 mm 4 mps 738 mmHg 79%
    18:00 +17°C° 0.3 mm 3 mps 738 mmHg 84%
    19:00 +16°C° 0.3 mm 2 mps 738 mmHg 89%
    20:00 +15°C° 0 mm 2 mps 738 mmHg 91%
    21:00 +14°C° 0 mm 2 mps 739 mmHg 94%
    22:00 +13°C° 0 mm 2 mps 739 mmHg 96%
    23:00 +13°C° 0 mm 2 mps 739 mmHg 96%

    Day after tomorrow, 23 May, Thursday

    Time Temperature Precipitation Wind Pressure Humidity
    00:00 +13°C° 0 mm 2 mps 739 mmHg 96%
    01:00 +12°C° 0 mm 1 mps 740 mmHg 96%
    02:00 +12°C° 0 mm 1 mps 740 mmHg 97%
    03:00 +12°C° 0 mm 1 mps 740 mmHg 97%
    04:00 +10°C° 0 mm 0 mps 740 mmHg 97%
    05:00 +13°C° 0 mm 1 mps 741 mmHg 94%
    06:00 +14°C° 0 mm 1 mps 741 mmHg 92%
    07:00 +15°C° 0 mm 1 mps 741 mmHg 89%
    08:00 +18°C° 0.1 mm 1 mps 741 mmHg 85%
    09:00 +19°C° 0.1 mm 1 mps 742 mmHg 80%
    10:00 +20°C° 0.1 mm 1 mps 742 mmHg 76%
    11:00 +20°C° 0.8 mm 2 mps 742 mmHg 75%
    12:00 +20°C° 0.8 mm 3 mps 742 mmHg 74%
    13:00 +21°C° 0.8 mm 4 mps 742 mmHg 73%
    14:00 +21°C° 0.9 mm 5 mps 742 mmHg 75%
    15:00 +20°C° 0.9 mm 6 mps 742 mmHg 78%
    16:00 +20°C° 0.9 mm 7 mps 742 mmHg 80%
    17:00 +18°C° 1.3 mm 7 mps 742 mmHg 84%
    18:00 +17°C° 1.3 mm 7 mps 742 mmHg 88%
    19:00 +16°C° 1.3 mm 7 mps 743 mmHg 91%
    20:00 +15°C° 0.7 mm 7 mps 743 mmHg 92%
    21:00 +15°C° 0.7 mm 6 mps 743 mmHg 93%
    22:00 +15°C° 0.7 mm 6 mps 743 mmHg 95%
    23:00 +14°C° 0.3 mm 6 mps 743 mmHg 94%

    24 May, Friday

    Time Temperature Precipitation Wind Pressure Humidity
    00:00 +13°C° 0.3 mm 6 mps 743 mmHg 94%
    01:00 +13°C° 0.3 mm 6 mps 743 mmHg 94%
    02:00 +11°C° 0.2 mm 6 mps 743 mmHg 94%
    03:00 +10°C° 0.2 mm 6 mps 743 mmHg 93%
    04:00 +10°C° 0.2 mm 6 mps 743 mmHg 92%
    05:00 +10°C° 0.2 mm 5 mps 744 mmHg 90%
    06:00 +10°C° 0.2 mm 5 mps 744 mmHg 89%
    07:00 +10°C° 0.2 mm 5 mps 744 mmHg 87%
    08:00 +12°C° 0.3 mm 5 mps 744 mmHg 86%
    09:00 +12°C° 0.3 mm 5 mps 744 mmHg 84%
    10:00 +13°C° 0.3 mm 5 mps 744 mmHg 83%
    11:00 +14°C° 0.2 mm 5 mps 744 mmHg 80%
    12:00 +15°C° 0.2 mm 5 mps 744 mmHg 76%
    13:00 +16°C° 0.2 mm 5 mps 744 mmHg 73%
    14:00 +17°C° 0 mm 4 mps 743 mmHg 73%
    15:00 +17°C° 0 mm 4 mps 743 mmHg 73%
    16:00 +18°C° 0 mm 4 mps 743 mmHg 73%
    17:00 +17°C° 0 mm 3 mps 743 mmHg 75%
    18:00 +16°C° 0 mm 3 mps 743 mmHg 77%
    19:00 +16°C° 0 mm 3 mps 743 mmHg 78%
    20:00 +13°C° 0 mm 3 mps 743 mmHg 81%
    21:00 +12°C° 0 mm 3 mps 743 mmHg 83%
    22:00 +11°C° 0 mm 3 mps 743 mmHg 86%
    23:00 +11°C° 0 mm 3 mps 743 mmHg 87%

    25 May, Saturday

    Time Temperature Precipitation Wind Pressure Humidity
    00:00 +11°C° 0 mm 3 mps 743 mmHg 89%
    01:00 +12°C° 0 mm 2 mps 743 mmHg 90%
    02:00 +12°C° 0 mm 2 mps 743 mmHg 91%
    03:00 +10°C° 0 mm 2 mps 743 mmHg 92%
    04:00 +10°C° 0 mm 3 mps 743 mmHg 93%
    05:00 +12°C° 0 mm 3 mps 743 mmHg 88%
    06:00 +14°C° 0 mm 3 mps 743 mmHg 82%
    07:00 +15°C° 0 mm 4 mps 743 mmHg 76%
    08:00 +17°C° 0.4 mm 4 mps 743 mmHg 73%
    09:00 +17°C° 0.4 mm 5 mps 743 mmHg 69%
    10:00 +19°C° 0.4 mm 5 mps 743 mmHg 66%
    11:00 +19°C° 0.4 mm 5 mps 743 mmHg 67%
    12:00 +19°C° 0.4 mm 5 mps 743 mmHg 68%
    13:00 +19°C° 0.4 mm 5 mps 743 mmHg 69%
    14:00 +20°C° 0.1 mm 5 mps 743 mmHg 66%
    15:00 +20°C° 0.1 mm 5 mps 742 mmHg 64%
    16:00 +20°C° 0.1 mm 5 mps 742 mmHg 61%
    17:00 +19°C° 0 mm 4 mps 742 mmHg 66%
    18:00 +17°C° 0 mm 4 mps 743 mmHg 71%
    19:00 +16°C° 0 mm 3 mps 743 mmHg 76%
    20:00 +13°C° 0 mm 3 mps 743 mmHg 81%
    21:00 +13°C° 0 mm 2 mps 743 mmHg 85%
    22:00 +10°C° 0 mm 2 mps 743 mmHg 90%
    23:00 +10°C° 0 mm 2 mps 743 mmHg 90%

    26 May, Sunday

    Time Temperature Precipitation Wind Pressure Humidity
    00:00 +9°C° 0 mm 2 mps 743 mmHg 91%
    01:00 +10°C° 0 mm 1 mps 743 mmHg 91%
    02:00 +9°C° 0 mm 2 mps 743 mmHg 91%
    03:00 +9°C° 0 mm 2 mps 743 mmHg 91%
    04:00 +9°C° 0 mm 2 mps 743 mmHg 92%
    05:00 +10°C° 0 mm 3 mps 743 mmHg 86%
    06:00 +12°C° 0 mm 4 mps 743 mmHg 80%
    07:00 +14°C° 0 mm 5 mps 743 mmHg 75%
    08:00 +15°C° 0.1 mm 5 mps 743 mmHg 71%
    09:00 +15°C° 0.1 mm 6 mps 743 mmHg 68%
    10:00 +16°C° 0.1 mm 7 mps 743 mmHg 64%
    11:00 +16°C° 0 mm 7 mps 742 mmHg 63%
    12:00 +16°C° 0 mm 7 mps 742 mmHg 62%
    13:00 +17°C° 0 mm 7 mps 742 mmHg 61%
    14:00 +17°C° 0 mm 6 mps 742 mmHg 61%
    15:00 +17°C° 0 mm 6 mps 742 mmHg 61%
    16:00 +16°C° 0 mm 6 mps 742 mmHg 61%
    17:00 +15°C° 0 mm 5 mps 742 mmHg 67%
    18:00 +14°C° 0 mm 4 mps 742 mmHg 72%
    19:00 +13°C° 0 mm 4 mps 742 mmHg 77%
    20:00 +12°C° 0.3 mm 4 mps 742 mmHg 82%
    21:00 +12°C° 0.3 mm 4 mps 742 mmHg 87%
    22:00 +11°C° 0.3 mm 4 mps 743 mmHg 92%
    23:00 +10°C° 0.1 mm 4 mps 743 mmHg 93%
    Show more